contact:dominique.lefevre@mio.osupytheas.fr, maurice.libes@osupytheas.fr, didier.mallarino@osupytheas.fr
Project:EMSO http://www.emso-fr.org/EMSO-France
Depth: 2436.0 m
Title:EMSO Ligure Ouest : Data MII capteur CSTAR
DateTime,Latitude,Longitude,Instrument_Serial,Reference_Counts,Signal_Counts,Corrected_Signal_raw_counts,Calculated_Beam_c_inverse_meters,Internal_thermistor_counts
DateTime,Latitude,Longitude,Instrument_Serial,Reference_Counts,Signal_Counts,Corrected_Signal_raw_counts,Calculated_Beam_c_inverse_meters,Internal_thermistor_counts
2022-07-17T00:00:50,42.805,6.029,CST-1368DR,4656,5105,11680,01.162,551
2022-07-17T00:03:52,42.805,6.029,CST-1368DR,4656,5106,11683,01.161,551
2022-07-17T00:06:53,42.805,6.029,CST-1368DR,4656,5103,11674,01.164,550
2022-07-17T00:09:55,42.805,6.029,CST-1368DR,4656,5111,11694,01.157,551
2022-07-17T00:12:57,42.805,6.029,CST-1368DR,4656,5103,11674,01.164,551
2022-07-17T00:15:58,42.805,6.029,CST-1368DR,4656,5107,11684,01.160,551
2022-07-17T00:19:00,42.805,6.029,CST-1368DR,4656,5105,11681,01.161,551
2022-07-17T00:22:01,42.805,6.029,CST-1368DR,4656,5104,11677,01.163,551
2022-07-17T00:25:03,42.805,6.029,CST-1368DR,4656,5102,11673,01.164,551
2022-07-17T00:28:04,42.805,6.029,CST-1368DR,4656,5104,11678,01.162,551
2022-07-17T00:31:06,42.805,6.029,CST-1368DR,4656,5110,11691,01.158,551
2022-07-17T00:34:08,42.805,6.029,CST-1368DR,4656,5115,11703,01.154,551
2022-07-17T00:37:09,42.805,6.029,CST-1368DR,4656,5099,11667,01.166,551
2022-07-17T00:40:11,42.805,6.029,CST-1368DR,4656,5098,11664,01.167,551
2022-07-17T00:43:12,42.805,6.029,CST-1368DR,4656,5098,11664,01.167,551
2022-07-17T00:46:14,42.805,6.029,CST-1368DR,4656,5097,11662,01.168,551
2022-07-17T00:49:15,42.805,6.029,CST-1368DR,4656,5099,11666,01.166,551
2022-07-17T00:52:17,42.805,6.029,CST-1368DR,4656,5098,11663,01.167,551
2022-07-17T00:55:19,42.805,6.029,CST-1368DR,4656,5101,11670,01.165,551
2022-07-17T00:58:20,42.805,6.029,CST-1368DR,4656,5099,11665,01.167,551
2022-07-17T01:01:22,42.805,6.029,CST-1368DR,4656,5100,11668,01.166,551
2022-07-17T01:04:23,42.805,6.029,CST-1368DR,4656,5101,11670,01.165,551
2022-07-17T01:07:25,42.805,6.029,CST-1368DR,4656,5103,11675,01.163,551
2022-07-17T01:10:27,42.805,6.029,CST-1368DR,4656,5104,11677,01.163,551
2022-07-17T01:13:28,42.805,6.029,CST-1368DR,4656,5101,11670,01.165,551
2022-07-17T01:16:30,42.805,6.029,CST-1368DR,4656,5098,11663,01.167,551
2022-07-17T01:19:31,42.805,6.029,CST-1368DR,4656,5103,11674,01.164,551
2022-07-17T01:22:33,42.805,6.029,CST-1368DR,4656,5102,11672,01.164,551
2022-07-17T01:25:34,42.805,6.029,CST-1368DR,4656,5098,11663,01.167,551
2022-07-17T01:28:36,42.805,6.029,CST-1368DR,4656,5100,11669,01.165,551
2022-07-17T01:31:38,42.805,6.029,CST-1368DR,4656,5113,11698,01.156,551
2022-07-17T01:34:39,42.805,6.029,CST-1368DR,4656,5113,11698,01.156,551
2022-07-17T01:37:41,42.805,6.029,CST-1368DR,4656,5105,11681,01.161,551
2022-07-17T01:40:42,42.805,6.029,CST-1368DR,4656,5104,11677,01.163,551
2022-07-17T01:43:44,42.805,6.029,CST-1368DR,4656,5101,11671,01.165,551
2022-07-17T01:46:45,42.805,6.029,CST-1368DR,4656,5102,11673,01.164,551
2022-07-17T01:49:47,42.805,6.029,CST-1368DR,4656,5103,11676,01.163,551
2022-07-17T01:52:49,42.805,6.029,CST-1368DR,4656,5105,11681,01.161,551
2022-07-17T01:55:50,42.805,6.029,CST-1368DR,4656,5107,11684,01.160,551
2022-07-17T01:58:52,42.805,6.029,CST-1368DR,4656,5105,11680,01.162,551
2022-07-17T02:01:53,42.805,6.029,CST-1368DR,4656,5112,11697,01.156,551
2022-07-17T02:04:55,42.805,6.029,CST-1368DR,4656,5105,11680,01.162,551
2022-07-17T02:07:57,42.805,6.029,CST-1368DR,4656,5113,11699,01.155,551
2022-07-17T02:10:58,42.805,6.029,CST-1368DR,4656,5108,11687,01.159,550
2022-07-17T02:14:00,42.805,6.029,CST-1368DR,4656,5113,11698,01.156,551
2022-07-17T02:17:01,42.805,6.029,CST-1368DR,4656,5111,11694,01.157,551
2022-07-17T02:20:03,42.805,6.029,CST-1368DR,4656,5109,11689,01.159,551
2022-07-17T02:23:04,42.805,6.029,CST-1368DR,4656,5106,11683,01.161,551
2022-07-17T02:26:06,42.805,6.029,CST-1368DR,4656,5110,11692,01.158,551
2022-07-17T02:29:08,42.805,6.029,CST-1368DR,4656,5113,11698,01.156,551
2022-07-17T02:32:09,42.805,6.029,CST-1368DR,4656,5112,11696,01.156,551
2022-07-17T02:35:11,42.805,6.029,CST-1368DR,4656,5106,11683,01.161,551
2022-07-17T02:38:12,42.805,6.029,CST-1368DR,4656,5103,11674,01.164,551
2022-07-17T02:41:14,42.805,6.029,CST-1368DR,4656,5103,11675,01.163,551
2022-07-17T02:44:16,42.805,6.029,CST-1368DR,4656,5115,11704,01.153,551
2022-07-17T02:47:17,42.805,6.029,CST-1368DR,4656,5104,11678,01.162,551
2022-07-17T02:50:19,42.805,6.029,CST-1368DR,4656,5108,11686,01.160,551
2022-07-17T02:53:20,42.805,6.029,CST-1368DR,4656,5110,11692,01.158,551
2022-07-17T02:56:22,42.805,6.029,CST-1368DR,4656,5116,11704,01.153,551
2022-07-17T02:59:23,42.805,6.029,CST-1368DR,4656,5119,11711,01.151,551
2022-07-17T03:02:25,42.805,6.029,CST-1368DR,4656,5111,11693,01.157,551
2022-07-17T03:05:27,42.805,6.029,CST-1368DR,4656,5108,11687,01.159,551
2022-07-17T03:08:28,42.805,6.029,CST-1368DR,4656,5108,11686,01.160,551
2022-07-17T03:11:30,42.805,6.029,CST-1368DR,4656,5117,11707,01.152,551
2022-07-17T03:14:31,42.805,6.029,CST-1368DR,4656,5113,11698,01.156,551
2022-07-17T03:17:33,42.805,6.029,CST-1368DR,4656,5106,11682,01.161,551
2022-07-17T03:20:34,42.805,6.029,CST-1368DR,4656,5111,11693,01.157,551
2022-07-17T03:23:36,42.805,6.029,CST-1368DR,4656,5105,11681,01.161,551
2022-07-17T03:26:38,42.805,6.029,CST-1368DR,4656,5116,11706,01.153,551
2022-07-17T03:29:39,42.805,6.029,CST-1368DR,4656,5107,11685,01.160,551
2022-07-17T03:32:41,42.805,6.029,CST-1368DR,4656,5114,11700,01.155,551
2022-07-17T03:35:42,42.805,6.029,CST-1368DR,4656,5105,11679,01.162,551
2022-07-17T03:38:44,42.805,6.029,CST-1368DR,4656,5106,11682,01.161,551
2022-07-17T03:41:46,42.805,6.029,CST-1368DR,4656,5113,11698,01.156,551
2022-07-17T03:44:47,42.805,6.029,CST-1368DR,4656,5108,11687,01.159,551
2022-07-17T03:47:49,42.805,6.029,CST-1368DR,4656,5107,11684,01.160,551
2022-07-17T03:50:50,42.805,6.029,CST-1368DR,4656,5106,11682,01.161,551
2022-07-17T03:53:52,42.805,6.029,CST-1368DR,4656,5110,11690,01.158,551
2022-07-17T03:56:53,42.805,6.029,CST-1368DR,4656,5104,11678,01.162,551
2022-07-17T03:59:55,42.805,6.029,CST-1368DR,4656,5108,11687,01.159,551
2022-07-17T04:02:57,42.805,6.029,CST-1368DR,4656,5104,11678,01.162,551
2022-07-17T04:05:58,42.805,6.029,CST-1368DR,4656,5103,11675,01.163,551
2022-07-17T04:09:00,42.805,6.029,CST-1368DR,4656,5112,11697,01.156,551
2022-07-17T04:12:01,42.805,6.029,CST-1368DR,4656,5107,11684,01.160,551
2022-07-17T04:15:03,42.805,6.029,CST-1368DR,4656,5108,11686,01.160,551
2022-07-17T04:18:05,42.805,6.029,CST-1368DR,4656,5104,11678,01.162,551
2022-07-17T04:21:06,42.805,6.029,CST-1368DR,4656,5111,11694,01.157,551
2022-07-17T04:24:08,42.805,6.029,CST-1368DR,4656,5103,11676,01.163,551
2022-07-17T04:27:09,42.805,6.029,CST-1368DR,4656,5104,11677,01.163,551
2022-07-17T04:30:11,42.805,6.029,CST-1368DR,4656,5111,11694,01.157,551
2022-07-17T04:33:12,42.805,6.029,CST-1368DR,4656,5110,11690,01.158,551
2022-07-17T04:36:14,42.805,6.029,CST-1368DR,4656,5103,11676,01.163,551
2022-07-17T04:39:16,42.805,6.029,CST-1368DR,4656,5116,11705,01.153,551
2022-07-17T04:42:17,42.805,6.029,CST-1368DR,4656,5105,11680,01.162,551
2022-07-17T04:45:19,42.805,6.029,CST-1368DR,4656,5102,11673,01.164,551
2022-07-17T04:48:20,42.805,6.029,CST-1368DR,4656,5112,11696,01.156,551
2022-07-17T04:51:22,42.805,6.029,CST-1368DR,4656,5120,11714,01.150,551
2022-07-17T04:54:23,42.805,6.029,CST-1368DR,4656,5111,11694,01.157,551
2022-07-17T04:57:25,42.805,6.029,CST-1368DR,4656,5116,11704,01.153,551
2022-07-17T05:00:27,42.805,6.029,CST-1368DR,4656,5107,11684,01.160,551
2022-07-17T05:03:28,42.805,6.029,CST-1368DR,4656,5106,11683,01.161,551
2022-07-17T05:06:30,42.805,6.029,CST-1368DR,4656,5115,11703,01.154,551
2022-07-17T05:09:31,42.805,6.029,CST-1368DR,4656,5113,11698,01.156,551
2022-07-17T05:12:33,42.805,6.029,CST-1368DR,4656,5114,11701,01.154,551
2022-07-17T05:15:35,42.805,6.029,CST-1368DR,4656,5107,11684,01.160,551
2022-07-17T05:18:36,42.805,6.029,CST-1368DR,4656,5111,11693,01.157,551
2022-07-17T05:21:38,42.805,6.029,CST-1368DR,4656,5112,11697,01.156,551
2022-07-17T05:24:39,42.805,6.029,CST-1368DR,4656,5109,11690,01.158,551
2022-07-17T05:27:41,42.805,6.029,CST-1368DR,4656,5118,11709,01.152,551
2022-07-17T05:30:42,42.805,6.029,CST-1368DR,4656,5108,11688,01.159,551
2022-07-17T05:33:44,42.805,6.029,CST-1368DR,4656,5129,11734,01.143,551
2022-07-17T05:36:46,42.805,6.029,CST-1368DR,4656,5118,11710,01.151,551
2022-07-17T05:39:47,42.805,6.029,CST-1368DR,4656,5120,11714,01.150,551
2022-07-17T05:42:49,42.805,6.029,CST-1368DR,4656,5115,11702,01.154,551
2022-07-17T05:45:50,42.805,6.029,CST-1368DR,4656,5122,11719,01.148,551
2022-07-17T05:48:52,42.805,6.029,CST-1368DR,4656,5119,11711,01.151,551
2022-07-17T05:51:53,42.805,6.029,CST-1368DR,4656,5119,11712,01.151,551
2022-07-17T05:54:55,42.805,6.029,CST-1368DR,4656,5116,11706,01.153,551
2022-07-17T05:57:57,42.805,6.029,CST-1368DR,4656,5122,11718,01.149,551
2022-07-17T06:00:58,42.805,6.029,CST-1368DR,4656,5123,11722,01.147,551
2022-07-17T06:04:00,42.805,6.029,CST-1368DR,4656,5111,11693,01.157,551
2022-07-17T06:07:01,42.805,6.029,CST-1368DR,4656,5115,11703,01.154,551
2022-07-17T06:10:03,42.805,6.029,CST-1368DR,4656,5125,11725,01.146,551
2022-07-17T06:13:05,42.805,6.029,CST-1368DR,4656,5115,11703,01.154,551
2022-07-17T06:16:06,42.805,6.029,CST-1368DR,4656,5119,11711,01.151,551
2022-07-17T06:19:08,42.805,6.029,CST-1368DR,4656,5117,11707,01.152,551
2022-07-17T06:22:09,42.805,6.029,CST-1368DR,4656,5116,11706,01.153,551
2022-07-17T06:25:11,42.805,6.029,CST-1368DR,4656,5119,11711,01.151,551
2022-07-17T06:28:12,42.805,6.029,CST-1368DR,4656,5117,11708,01.152,551
2022-07-17T06:31:14,42.805,6.029,CST-1368DR,4656,5116,11704,01.153,551
2022-07-17T06:34:16,42.805,6.029,CST-1368DR,4656,5113,11698,01.156,550
2022-07-17T06:37:17,42.805,6.029,CST-1368DR,4656,5117,11708,01.152,551
2022-07-17T06:40:19,42.805,6.029,CST-1368DR,4656,5117,11707,01.152,551
2022-07-17T06:43:20,42.805,6.029,CST-1368DR,4656,5105,11679,01.162,551
2022-07-17T06:46:22,42.805,6.029,CST-1368DR,4656,5110,11692,01.158,551
2022-07-17T06:49:23,42.805,6.029,CST-1368DR,4656,5109,11690,01.158,551
2022-07-17T06:52:25,42.805,6.029,CST-1368DR,4656,5112,11696,01.156,551
2022-07-17T06:55:27,42.805,6.029,CST-1368DR,4656,5112,11697,01.156,551
2022-07-17T06:58:28,42.805,6.029,CST-1368DR,4656,5115,11704,01.153,551
2022-07-17T07:01:30,42.805,6.029,CST-1368DR,4656,5105,11680,01.162,551
2022-07-17T07:04:31,42.805,6.029,CST-1368DR,4656,5113,11698,01.156,551
2022-07-17T07:07:33,42.805,6.029,CST-1368DR,4656,5110,11691,01.158,551
2022-07-17T07:10:35,42.805,6.029,CST-1368DR,4656,5116,11705,01.153,551
2022-07-17T07:13:36,42.805,6.029,CST-1368DR,4656,5115,11703,01.154,551
2022-07-17T07:16:38,42.805,6.029,CST-1368DR,4656,5121,11716,01.149,551
2022-07-17T07:19:39,42.805,6.029,CST-1368DR,4656,5113,11698,01.156,551
2022-07-17T07:22:41,42.805,6.029,CST-1368DR,4656,5116,11704,01.153,551
2022-07-17T07:25:42,42.805,6.029,CST-1368DR,4656,5107,11684,01.160,551
2022-07-17T07:28:44,42.805,6.029,CST-1368DR,4656,5114,11701,01.154,551
2022-07-17T07:31:46,42.805,6.029,CST-1368DR,4656,5115,11703,01.154,551
2022-07-17T07:34:47,42.805,6.029,CST-1368DR,4656,5115,11702,01.154,551
2022-07-17T07:37:49,42.805,6.029,CST-1368DR,4656,5120,11715,01.150,551
2022-07-17T07:40:50,42.805,6.029,CST-1368DR,4656,5121,11717,01.149,551
2022-07-17T07:43:52,42.805,6.029,CST-1368DR,4656,5114,11701,01.154,551
2022-07-17T07:46:53,42.805,6.029,CST-1368DR,4656,5121,11717,01.149,551
2022-07-17T07:49:55,42.805,6.029,CST-1368DR,4656,5113,11699,01.155,551
2022-07-17T07:52:57,42.805,6.029,CST-1368DR,4656,5117,11708,01.152,551
2022-07-17T07:55:58,42.805,6.029,CST-1368DR,4656,5118,11709,01.152,551
2022-07-17T07:59:00,42.805,6.029,CST-1368DR,4656,5124,11723,01.147,551
2022-07-17T08:02:01,42.805,6.029,CST-1368DR,4656,5111,11693,01.157,551
2022-07-17T08:05:03,42.805,6.029,CST-1368DR,4656,5116,11705,01.153,551
2022-07-17T08:08:05,42.805,6.029,CST-1368DR,4656,5113,11698,01.156,551
2022-07-17T08:11:06,42.805,6.029,CST-1368DR,4656,5121,11717,01.149,551
2022-07-17T08:14:08,42.805,6.029,CST-1368DR,4656,5115,11703,01.154,551
2022-07-17T08:17:09,42.805,6.029,CST-1368DR,4656,5111,11694,01.157,551
2022-07-17T08:20:11,42.805,6.029,CST-1368DR,4656,5118,11710,01.151,551
2022-07-17T08:23:12,42.805,6.029,CST-1368DR,4656,5115,11702,01.154,551
2022-07-17T08:26:14,42.805,6.029,CST-1368DR,4656,5116,11705,01.153,551
2022-07-17T08:29:16,42.805,6.029,CST-1368DR,4656,5111,11693,01.157,551
2022-07-17T08:32:17,42.805,6.029,CST-1368DR,4656,5119,11711,01.151,551
2022-07-17T08:35:19,42.805,6.029,CST-1368DR,4656,5115,11703,01.154,551
2022-07-17T08:38:20,42.805,6.029,CST-1368DR,4656,5115,11703,01.154,551
2022-07-17T08:41:22,42.805,6.029,CST-1368DR,4656,5103,11676,01.163,551
2022-07-17T08:44:24,42.805,6.029,CST-1368DR,4656,5115,11704,01.153,551
2022-07-17T08:47:25,42.805,6.029,CST-1368DR,4656,5110,11692,01.158,551
2022-07-17T08:50:27,42.805,6.029,CST-1368DR,4656,5114,11700,01.155,551
2022-07-17T08:53:28,42.805,6.029,CST-1368DR,4656,5108,11687,01.159,551
2022-07-17T08:56:30,42.805,6.029,CST-1368DR,4656,5122,11719,01.148,551
2022-07-17T08:59:31,42.805,6.029,CST-1368DR,4656,5111,11693,01.157,551
2022-07-17T09:02:33,42.805,6.029,CST-1368DR,4656,5108,11688,01.159,551
2022-07-17T09:05:35,42.805,6.029,CST-1368DR,4656,5107,11684,01.160,551
2022-07-17T09:08:36,42.805,6.029,CST-1368DR,4656,5112,11695,01.157,551
2022-07-17T09:11:38,42.805,6.029,CST-1368DR,4656,5109,11690,01.158,551
2022-07-17T09:14:39,42.805,6.029,CST-1368DR,4656,5111,11693,01.157,551
2022-07-17T09:17:41,42.805,6.029,CST-1368DR,4656,5110,11692,01.158,551
2022-07-17T09:20:42,42.805,6.029,CST-1368DR,4656,5108,11688,01.159,551
2022-07-17T09:23:44,42.805,6.029,CST-1368DR,4656,5105,11681,01.161,551
2022-07-17T09:26:46,42.805,6.029,CST-1368DR,4655,5107,11688,01.159,551
2022-07-17T09:29:47,42.805,6.029,CST-1368DR,4656,5123,11722,01.147,551
2022-07-17T09:32:49,42.805,6.029,CST-1368DR,4656,5111,11693,01.157,551
2022-07-17T09:35:50,42.805,6.029,CST-1368DR,4656,5110,11692,01.158,551
2022-07-17T09:38:52,42.805,6.029,CST-1368DR,4656,5124,11723,01.147,551
2022-07-17T09:41:54,42.805,6.029,CST-1368DR,4655,5115,11704,01.153,551
2022-07-17T09:44:55,42.805,6.029,CST-1368DR,4656,5119,11712,01.151,551
2022-07-17T09:47:57,42.805,6.029,CST-1368DR,4656,5110,11692,01.158,551
2022-07-17T09:50:58,42.805,6.029,CST-1368DR,4656,5114,11700,01.155,551
2022-07-17T09:54:00,42.805,6.029,CST-1368DR,4656,5116,11706,01.153,550
2022-07-17T09:57:01,42.805,6.029,CST-1368DR,4656,5120,11715,01.150,551
2022-07-17T10:00:03,42.805,6.029,CST-1368DR,4656,5114,11701,01.154,551
2022-07-17T10:03:05,42.805,6.029,CST-1368DR,4655,5122,11721,01.148,551
2022-07-17T10:06:06,42.805,6.029,CST-1368DR,4655,5112,11698,01.156,551
2022-07-17T10:09:08,42.805,6.029,CST-1368DR,4656,5120,11715,01.150,551
2022-07-17T10:12:09,42.805,6.029,CST-1368DR,4656,5114,11701,01.154,551
2022-07-17T10:15:11,42.805,6.029,CST-1368DR,4656,5119,11711,01.151,551
2022-07-17T10:18:12,42.805,6.029,CST-1368DR,4656,5114,11701,01.154,551
2022-07-17T10:21:14,42.805,6.029,CST-1368DR,4655,5110,11693,01.157,551
2022-07-17T10:24:16,42.805,6.029,CST-1368DR,4656,5114,11701,01.154,551
2022-07-17T10:27:17,42.805,6.029,CST-1368DR,4656,5111,11693,01.157,551
2022-07-17T10:30:19,42.805,6.029,CST-1368DR,4655,5111,11697,01.156,551
2022-07-17T10:33:20,42.805,6.029,CST-1368DR,4656,5116,11706,01.153,550
2022-07-17T10:36:22,42.805,6.029,CST-1368DR,4656,5113,11699,01.155,551
2022-07-17T10:39:24,42.805,6.029,CST-1368DR,4656,5106,11682,01.161,551
2022-07-17T10:42:25,42.805,6.029,CST-1368DR,4656,5118,11710,01.151,551
2022-07-17T10:45:27,42.805,6.029,CST-1368DR,4655,5107,11688,01.159,551
2022-07-17T10:48:28,42.805,6.029,CST-1368DR,4656,5113,11698,01.156,551
2022-07-17T10:51:30,42.805,6.029,CST-1368DR,4656,5118,11711,01.151,551
2022-07-17T10:55:07,42.805,6.029,CST-1368DR,4656,5112,11695,01.157,551
2022-07-17T10:58:08,42.805,6.029,CST-1368DR,4656,5117,11708,01.152,551
2022-07-17T11:01:10,42.805,6.029,CST-1368DR,4656,5116,11705,01.153,551
2022-07-17T11:04:11,42.805,6.029,CST-1368DR,4656,5114,11700,01.155,551
2022-07-17T11:07:13,42.805,6.029,CST-1368DR,4656,5120,11713,01.150,551
2022-07-17T11:10:14,42.805,6.029,CST-1368DR,4656,5118,11709,01.152,551
2022-07-17T11:13:16,42.805,6.029,CST-1368DR,4656,5122,11719,01.148,551
2022-07-17T11:16:18,42.805,6.029,CST-1368DR,4656,5117,11707,01.152,551
2022-07-17T11:19:19,42.805,6.029,CST-1368DR,4655,5119,11713,01.150,551
2022-07-17T11:22:21,42.805,6.029,CST-1368DR,4656,5120,11715,01.150,551
2022-07-17T11:25:22,42.805,6.029,CST-1368DR,4655,5117,11711,01.151,551
2022-07-17T11:28:24,42.805,6.029,CST-1368DR,4656,5117,11707,01.152,551
2022-07-17T11:31:26,42.805,6.029,CST-1368DR,4655,5128,11735,01.143,551
2022-07-17T11:34:27,42.805,6.029,CST-1368DR,4655,5126,11730,01.145,551
2022-07-17T11:37:29,42.805,6.029,CST-1368DR,4655,5124,11726,01.146,551
2022-07-17T11:40:30,42.805,6.029,CST-1368DR,4655,5120,11716,01.149,551
2022-07-17T11:43:32,42.805,6.029,CST-1368DR,4655,5117,11709,01.152,550
2022-07-17T11:46:33,42.805,6.029,CST-1368DR,4655,5118,11712,01.151,551
2022-07-17T11:49:35,42.805,6.029,CST-1368DR,4655,5118,11711,01.151,551
2022-07-17T11:52:37,42.805,6.029,CST-1368DR,4655,5126,11730,01.145,551
2022-07-17T11:55:38,42.805,6.029,CST-1368DR,4655,5121,11720,01.148,551
2022-07-17T11:58:40,42.805,6.029,CST-1368DR,4655,5114,11702,01.154,551
2022-07-17T12:01:41,42.805,6.029,CST-1368DR,4655,5115,11706,01.153,551
2022-07-17T12:04:43,42.805,6.029,CST-1368DR,4655,5115,11704,01.153,551
2022-07-17T12:07:45,42.805,6.029,CST-1368DR,4655,5129,11737,01.142,551
2022-07-17T12:10:46,42.805,6.029,CST-1368DR,4655,5128,11736,01.143,551
2022-07-17T12:13:48,42.805,6.029,CST-1368DR,4656,5122,11719,01.148,551
2022-07-17T12:16:49,42.805,6.029,CST-1368DR,4655,5125,11729,01.145,551
2022-07-17T12:19:51,42.805,6.029,CST-1368DR,4655,5120,11717,01.149,551
2022-07-17T12:22:52,42.805,6.029,CST-1368DR,4656,5124,11724,01.147,551
2022-07-17T12:25:54,42.805,6.029,CST-1368DR,4655,5125,11728,01.145,551
2022-07-17T12:28:56,42.805,6.029,CST-1368DR,4655,5126,11730,01.145,551
2022-07-17T12:31:57,42.805,6.029,CST-1368DR,4655,5122,11722,01.147,551
2022-07-17T12:34:59,42.805,6.029,CST-1368DR,4655,5123,11724,01.147,551
2022-07-17T12:38:00,42.805,6.029,CST-1368DR,4655,5123,11724,01.147,551
2022-07-17T12:41:02,42.805,6.029,CST-1368DR,4655,5128,11736,01.143,551
2022-07-17T12:44:03,42.805,6.029,CST-1368DR,4655,5126,11730,01.145,551
2022-07-17T12:47:05,42.805,6.029,CST-1368DR,4655,5124,11725,01.146,551
2022-07-17T12:50:07,42.805,6.029,CST-1368DR,4655,5120,11717,01.149,551
2022-07-17T12:53:08,42.805,6.029,CST-1368DR,4655,5124,11726,01.146,551
2022-07-17T12:56:10,42.805,6.029,CST-1368DR,4655,5124,11725,01.146,551
2022-07-17T12:59:11,42.805,6.029,CST-1368DR,4655,5119,11713,01.150,551
2022-07-17T13:02:13,42.805,6.029,CST-1368DR,4655,5120,11716,01.149,551
2022-07-17T13:05:15,42.805,6.029,CST-1368DR,4655,5126,11731,01.144,551
2022-07-17T13:08:16,42.805,6.029,CST-1368DR,4655,5127,11733,01.144,551
2022-07-17T13:11:18,42.805,6.029,CST-1368DR,4655,5125,11729,01.145,551
2022-07-17T13:14:19,42.805,6.029,CST-1368DR,4655,5129,11737,01.142,551
2022-07-17T13:17:21,42.805,6.029,CST-1368DR,4655,5126,11731,01.144,551
2022-07-17T13:20:22,42.805,6.029,CST-1368DR,4655,5121,11718,01.149,551
2022-07-17T13:23:24,42.805,6.029,CST-1368DR,4655,5118,11712,01.151,551
2022-07-17T13:26:26,42.805,6.029,CST-1368DR,4655,5122,11720,01.148,551
2022-07-17T13:29:27,42.805,6.029,CST-1368DR,4655,5115,11705,01.153,551
2022-07-17T13:32:29,42.805,6.029,CST-1368DR,4655,5117,11711,01.151,551
2022-07-17T13:35:30,42.805,6.029,CST-1368DR,4655,5119,11714,01.150,551
2022-07-17T13:38:32,42.805,6.029,CST-1368DR,4655,5114,11704,01.153,551
2022-07-17T13:41:33,42.805,6.029,CST-1368DR,4655,5124,11727,01.146,551
2022-07-17T13:44:35,42.805,6.029,CST-1368DR,4655,5121,11719,01.148,551
2022-07-17T13:47:37,42.805,6.029,CST-1368DR,4655,5125,11729,01.145,551
2022-07-17T13:50:38,42.805,6.029,CST-1368DR,4655,5123,11723,01.147,551
2022-07-17T13:53:40,42.805,6.029,CST-1368DR,4655,5127,11734,01.143,551
2022-07-17T13:56:41,42.805,6.029,CST-1368DR,4655,5124,11725,01.146,551
2022-07-17T13:59:43,42.805,6.029,CST-1368DR,4655,5119,11715,01.150,551
2022-07-17T14:02:45,42.805,6.029,CST-1368DR,4655,5129,11736,01.143,551
2022-07-17T14:05:46,42.805,6.029,CST-1368DR,4655,5123,11724,01.147,551
2022-07-17T14:08:48,42.805,6.029,CST-1368DR,4655,5128,11735,01.143,551
2022-07-17T14:11:49,42.805,6.029,CST-1368DR,4655,5127,11734,01.143,551
2022-07-17T14:14:51,42.805,6.029,CST-1368DR,4655,5122,11720,01.148,551
2022-07-17T14:17:52,42.805,6.029,CST-1368DR,4655,5110,11693,01.157,551
2022-07-17T14:20:54,42.805,6.029,CST-1368DR,4655,5114,11703,01.154,551
2022-07-17T14:23:56,42.805,6.029,CST-1368DR,4655,5110,11695,01.157,551
2022-07-17T14:26:57,42.805,6.029,CST-1368DR,4655,5120,11716,01.149,551
2022-07-17T14:29:59,42.805,6.029,CST-1368DR,4655,5114,11703,01.154,551
2022-07-17T14:33:00,42.805,6.029,CST-1368DR,4655,5125,11728,01.145,551
2022-07-17T14:36:02,42.805,6.029,CST-1368DR,4655,5121,11719,01.148,551
2022-07-17T14:39:03,42.805,6.029,CST-1368DR,4655,5121,11720,01.148,551
2022-07-17T14:42:05,42.805,6.029,CST-1368DR,4655,5116,11707,01.152,551
2022-07-17T14:45:07,42.805,6.029,CST-1368DR,4655,5127,11734,01.143,551
2022-07-17T14:48:08,42.805,6.029,CST-1368DR,4655,5127,11734,01.143,551
2022-07-17T14:51:10,42.805,6.029,CST-1368DR,4655,5132,11744,01.140,551
2022-07-17T14:54:11,42.805,6.029,CST-1368DR,4655,5121,11719,01.148,551
2022-07-17T14:57:13,42.805,6.029,CST-1368DR,4655,5122,11721,01.148,551
2022-07-17T15:00:15,42.805,6.029,CST-1368DR,4655,5126,11731,01.144,551
2022-07-17T15:03:16,42.805,6.029,CST-1368DR,4655,5118,11711,01.151,551
2022-07-17T15:06:18,42.805,6.029,CST-1368DR,4655,5115,11704,01.153,551
2022-07-17T15:09:19,42.805,6.029,CST-1368DR,4655,5118,11713,01.150,551
2022-07-17T15:12:21,42.805,6.029,CST-1368DR,4655,5115,11706,01.153,551
2022-07-17T15:15:22,42.805,6.029,CST-1368DR,4655,5122,11722,01.147,551
2022-07-17T15:18:24,42.805,6.029,CST-1368DR,4655,5123,11723,01.147,551
2022-07-17T15:21:26,42.805,6.029,CST-1368DR,4655,5120,11716,01.149,551
2022-07-17T15:24:27,42.805,6.029,CST-1368DR,4655,5111,11696,01.156,551
2022-07-17T15:27:29,42.805,6.029,CST-1368DR,4655,5115,11704,01.153,551
2022-07-17T15:30:30,42.805,6.029,CST-1368DR,4655,5124,11725,01.146,551
2022-07-17T15:33:32,42.805,6.029,CST-1368DR,4655,5123,11724,01.147,551
2022-07-17T15:36:33,42.805,6.029,CST-1368DR,4655,5116,11708,01.152,551
2022-07-17T15:39:35,42.805,6.029,CST-1368DR,4655,5116,11708,01.152,551
2022-07-17T15:42:37,42.805,6.029,CST-1368DR,4655,5121,11720,01.148,551
2022-07-17T15:45:38,42.805,6.029,CST-1368DR,4655,5127,11734,01.143,551
2022-07-17T15:48:40,42.805,6.029,CST-1368DR,4655,5120,11716,01.149,551
2022-07-17T15:51:41,42.805,6.029,CST-1368DR,4655,5127,11732,01.144,551
2022-07-17T15:54:43,42.805,6.029,CST-1368DR,4655,5110,11693,01.157,551
2022-07-17T15:57:45,42.805,6.029,CST-1368DR,4655,5115,11705,01.153,551
2022-07-17T16:00:46,42.805,6.029,CST-1368DR,4655,5131,11742,01.140,551
2022-07-17T16:03:48,42.805,6.029,CST-1368DR,4655,5121,11719,01.148,551
2022-07-17T16:06:49,42.805,6.029,CST-1368DR,4655,5122,11721,01.148,551
2022-07-17T16:09:51,42.805,6.029,CST-1368DR,4655,5127,11732,01.144,551
2022-07-17T16:12:52,42.805,6.029,CST-1368DR,4655,5118,11713,01.150,551
2022-07-17T16:15:54,42.805,6.029,CST-1368DR,4655,5112,11698,01.156,551
2022-07-17T16:18:56,42.805,6.029,CST-1368DR,4655,5122,11722,01.147,551
2022-07-17T16:21:57,42.805,6.029,CST-1368DR,4655,5122,11722,01.147,551
2022-07-17T16:24:59,42.805,6.029,CST-1368DR,4655,5111,11696,01.156,551
2022-07-17T16:28:00,42.805,6.029,CST-1368DR,4655,5109,11692,01.158,551
2022-07-17T16:31:02,42.805,6.029,CST-1368DR,4655,5118,11711,01.151,551
2022-07-17T16:34:03,42.805,6.029,CST-1368DR,4655,5121,11720,01.148,551
2022-07-17T16:37:05,42.805,6.029,CST-1368DR,4655,5124,11725,01.146,551